When you browse on this site, cookies collect data to enhance your experience and personalize the content and advertising you see.
Visit our Privacy Policy to learn more. By continuing to use the site, you agree to this use of cookies and data.
  • în România
  • Lista ţărilor
  • Pe 7 zile
  • Temperatura apei
  • Hartă satelitară
  • Meteo pe hartă
  • Widget-uri
  • user-avatar
    Intrare

    Meteo pe oră la Balchik

    Astăzi, 18 Martie, Luni

    Timp Temperatura Precipitaţii Vânt Presiune Umiditate
    00:00 +9°C° 0 mm 2 m/s 738 mmHg 76%
    01:00 +9°C° 0 mm 2 m/s 738 mmHg 78%
    02:00 +9°C° 0 mm 2 m/s 738 mmHg 79%
    03:00 +9°C° 0 mm 2 m/s 738 mmHg 80%
    04:00 +9°C° 0 mm 2 m/s 737 mmHg 81%
    05:00 +9°C° 0 mm 3 m/s 737 mmHg 83%
    06:00 +10°C° 0 mm 3 m/s 738 mmHg 79%
    07:00 +11°C° 0 mm 3 m/s 738 mmHg 74%
    08:00 +13°C° 0 mm 2 m/s 738 mmHg 68%
    09:00 +14°C° 0 mm 3 m/s 738 mmHg 62%
    10:00 +17°C° 0 mm 3 m/s 738 mmHg 56%
    11:00 +19°C° 0 mm 4 m/s 738 mmHg 50%
    12:00 +19°C° 0 mm 4 m/s 738 mmHg 49%
    13:00 +20°C° 0 mm 4 m/s 738 mmHg 49%
    14:00 +20°C° 0 mm 5 m/s 738 mmHg 49%
    15:00 +19°C° 0 mm 5 m/s 738 mmHg 52%
    16:00 +17°C° 0 mm 5 m/s 738 mmHg 56%
    17:00 +16°C° 0 mm 5 m/s 737 mmHg 60%
    18:00 +15°C° 0 mm 4 m/s 738 mmHg 67%
    19:00 +13°C° 0 mm 4 m/s 738 mmHg 74%
    20:00 +11°C° 0 mm 4 m/s 738 mmHg 81%
    21:00 +11°C° 0 mm 4 m/s 738 mmHg 81%
    22:00 +11°C° 0 mm 4 m/s 738 mmHg 82%
    23:00 +11°C° 0 mm 4 m/s 739 mmHg 83%

    Mâine, 19 Martie, Marţi

    Timp Temperatura Precipitaţii Vânt Presiune Umiditate
    00:00 +10°C° 0 mm 4 m/s 739 mmHg 84%
    01:00 +10°C° 0 mm 4 m/s 739 mmHg 84%
    02:00 +10°C° 0 mm 4 m/s 739 mmHg 85%
    03:00 +10°C° 0 mm 4 m/s 738 mmHg 87%
    04:00 +8°C° 0 mm 4 m/s 738 mmHg 88%
    05:00 +8°C° 0 mm 4 m/s 738 mmHg 89%
    06:00 +10°C° 0 mm 4 m/s 739 mmHg 86%
    07:00 +11°C° 0 mm 4 m/s 739 mmHg 83%
    08:00 +10°C° 0 mm 5 m/s 739 mmHg 80%
    09:00 +13°C° 0 mm 5 m/s 739 mmHg 74%
    10:00 +14°C° 0 mm 5 m/s 740 mmHg 68%
    11:00 +16°C° 0 mm 5 m/s 740 mmHg 62%
    12:00 +17°C° 0 mm 4 m/s 740 mmHg 60%
    13:00 +17°C° 0 mm 4 m/s 740 mmHg 58%
    14:00 +18°C° 0 mm 4 m/s 740 mmHg 56%
    15:00 +17°C° 0 mm 4 m/s 740 mmHg 60%
    16:00 +15°C° 0 mm 4 m/s 740 mmHg 64%
    17:00 +14°C° 0 mm 3 m/s 740 mmHg 68%
    18:00 +13°C° 0 mm 3 m/s 740 mmHg 73%
    19:00 +11°C° 0 mm 3 m/s 741 mmHg 78%
    20:00 +9°C° 0 mm 2 m/s 741 mmHg 84%
    21:00 +9°C° 0 mm 2 m/s 742 mmHg 85%
    22:00 +8°C° 0 mm 2 m/s 742 mmHg 86%
    23:00 +8°C° 0 mm 2 m/s 742 mmHg 87%

    Poimâine, 20 Martie, Miercuri

    Timp Temperatura Precipitaţii Vânt Presiune Umiditate
    00:00 +8°C° 0 mm 2 m/s 743 mmHg 87%
    01:00 +8°C° 0 mm 2 m/s 743 mmHg 86%
    02:00 +8°C° 0 mm 2 m/s 743 mmHg 85%
    03:00 +8°C° 0.1 mm 2 m/s 743 mmHg 86%
    04:00 +8°C° 0.1 mm 2 m/s 743 mmHg 87%
    05:00 +7°C° 0.1 mm 3 m/s 744 mmHg 88%
    06:00 +7°C° 0 mm 3 m/s 744 mmHg 87%
    07:00 +6°C° 0 mm 4 m/s 745 mmHg 86%
    08:00 +6°C° 0 mm 4 m/s 745 mmHg 85%
    09:00 +7°C° 0 mm 4 m/s 746 mmHg 75%
    10:00 +10°C° 0 mm 4 m/s 746 mmHg 66%
    11:00 +11°C° 0 mm 4 m/s 747 mmHg 57%
    12:00 +12°C° 0 mm 4 m/s 747 mmHg 51%
    13:00 +13°C° 0 mm 4 m/s 747 mmHg 45%
    14:00 +14°C° 0 mm 4 m/s 747 mmHg 39%
    15:00 +13°C° 0 mm 4 m/s 747 mmHg 42%
    16:00 +13°C° 0 mm 4 m/s 747 mmHg 44%
    17:00 +13°C° 0 mm 4 m/s 747 mmHg 47%
    18:00 +11°C° 0 mm 3 m/s 748 mmHg 54%
    19:00 +10°C° 0 mm 3 m/s 748 mmHg 62%
    20:00 +9°C° 0 mm 3 m/s 748 mmHg 69%
    21:00 +8°C° 0 mm 3 m/s 749 mmHg 72%
    22:00 +8°C° 0 mm 3 m/s 749 mmHg 74%
    23:00 +7°C° 0 mm 3 m/s 749 mmHg 77%

    21 Martie, Joi

    Timp Temperatura Precipitaţii Vânt Presiune Umiditate
    00:00 +7°C° 0 mm 3 m/s 749 mmHg 79%
    01:00 +5°C° 0 mm 3 m/s 749 mmHg 80%
    02:00 +5°C° 0 mm 3 m/s 749 mmHg 82%
    03:00 +5°C° 0 mm 3 m/s 749 mmHg 80%
    04:00 +4°C° 0 mm 3 m/s 749 mmHg 78%
    05:00 +4°C° 0 mm 3 m/s 749 mmHg 75%
    06:00 +4°C° 0 mm 4 m/s 750 mmHg 71%
    07:00 +5°C° 0 mm 4 m/s 750 mmHg 66%
    08:00 +6°C° 0 mm 4 m/s 750 mmHg 61%
    09:00 +7°C° 0 mm 4 m/s 751 mmHg 55%
    10:00 +10°C° 0 mm 4 m/s 751 mmHg 50%
    11:00 +11°C° 0 mm 4 m/s 751 mmHg 44%
    12:00 +12°C° 0 mm 4 m/s 750 mmHg 42%
    13:00 +12°C° 0 mm 4 m/s 750 mmHg 40%
    14:00 +13°C° 0 mm 5 m/s 750 mmHg 38%
    15:00 +12°C° 0 mm 4 m/s 749 mmHg 38%
    16:00 +12°C° 0 mm 4 m/s 749 mmHg 39%
    17:00 +12°C° 0 mm 4 m/s 748 mmHg 40%
    18:00 +10°C° 0 mm 3 m/s 748 mmHg 45%
    19:00 +9°C° 0 mm 2 m/s 748 mmHg 50%
    20:00 +8°C° 0 mm 1 m/s 749 mmHg 54%
    21:00 +8°C° 0 mm 1 m/s 749 mmHg 55%
    22:00 +8°C° 0 mm 1 m/s 749 mmHg 55%
    23:00 +8°C° 0 mm 1 m/s 749 mmHg 55%

    22 Martie, Vineri

    Timp Temperatura Precipitaţii Vânt Presiune Umiditate
    00:00 +6°C° 0 mm 2 m/s 749 mmHg 56%
    01:00 +6°C° 0 mm 2 m/s 749 mmHg 57%
    02:00 +6°C° 0 mm 2 m/s 749 mmHg 58%
    03:00 +5°C° 0 mm 3 m/s 749 mmHg 62%
    04:00 +5°C° 0 mm 3 m/s 749 mmHg 66%
    05:00 +5°C° 0 mm 3 m/s 748 mmHg 70%
    06:00 +6°C° 0 mm 4 m/s 749 mmHg 70%
    07:00 +7°C° 0 mm 4 m/s 749 mmHg 69%
    08:00 +7°C° 0 mm 5 m/s 749 mmHg 68%
    09:00 +8°C° 0 mm 5 m/s 749 mmHg 63%
    10:00 +9°C° 0 mm 5 m/s 750 mmHg 57%
    11:00 +12°C° 0 mm 5 m/s 750 mmHg 51%
    12:00 +12°C° 0 mm 4 m/s 749 mmHg 48%
    13:00 +13°C° 0 mm 4 m/s 749 mmHg 45%
    14:00 +14°C° 0 mm 3 m/s 749 mmHg 43%
    15:00 +13°C° 0 mm 3 m/s 748 mmHg 45%
    16:00 +13°C° 0 mm 3 m/s 748 mmHg 46%
    17:00 +14°C° 0 mm 2 m/s 748 mmHg 48%
    18:00 +12°C° 0 mm 2 m/s 748 mmHg 55%
    19:00 +9°C° 0 mm 2 m/s 748 mmHg 62%
    20:00 +8°C° 0 mm 2 m/s 748 mmHg 68%
    21:00 +7°C° 0 mm 2 m/s 748 mmHg 70%
    22:00 +7°C° 0 mm 2 m/s 748 mmHg 71%
    23:00 +7°C° 0 mm 2 m/s 748 mmHg 72%

    23 Martie, Sâmbătă

    Timp Temperatura Precipitaţii Vânt Presiune Umiditate
    00:00 +7°C° 0 mm 2 m/s 747 mmHg 73%
    01:00 +7°C° 0 mm 2 m/s 747 mmHg 73%
    02:00 +6°C° 0 mm 2 m/s 747 mmHg 73%
    03:00 +6°C° 0 mm 2 m/s 747 mmHg 74%
    04:00 +6°C° 0 mm 2 m/s 746 mmHg 75%
    05:00 +6°C° 0 mm 2 m/s 746 mmHg 76%
    06:00 +8°C° 0 mm 3 m/s 746 mmHg 73%
    07:00 +9°C° 0 mm 3 m/s 747 mmHg 70%
    08:00 +10°C° 0 mm 4 m/s 747 mmHg 67%
    09:00 +12°C° 0 mm 4 m/s 747 mmHg 62%
    10:00 +14°C° 0 mm 4 m/s 747 mmHg 57%
    11:00 +15°C° 0 mm 5 m/s 747 mmHg 52%
    12:00 +17°C° 0 mm 4 m/s 746 mmHg 50%
    13:00 +18°C° 0 mm 4 m/s 746 mmHg 48%
    14:00 +18°C° 0 mm 4 m/s 746 mmHg 46%
    15:00 +17°C° 0 mm 4 m/s 745 mmHg 49%
    16:00 +15°C° 0 mm 4 m/s 745 mmHg 53%
    17:00 +14°C° 0 mm 5 m/s 745 mmHg 56%
    18:00 +13°C° 0 mm 4 m/s 746 mmHg 53%
    19:00 +12°C° 0 mm 3 m/s 746 mmHg 51%
    20:00 +11°C° 0 mm 3 m/s 747 mmHg 48%
    21:00 +11°C° 0 mm 3 m/s 747 mmHg 45%
    22:00 +11°C° 0 mm 3 m/s 747 mmHg 41%
    23:00 +10°C° 0 mm 3 m/s 748 mmHg 38%
    Arată mai mult